N4008U KPGD-KPNS

Flight info

Callsign N4008U
Flight time 1h 21m
Altitude 40000
Route ROGAN LAL VARZE HEVVN
Aircraft CL60/M-SBDE1E2E3FGHIJ1J4J5J7M3RWXYZ/LB1V1D1

Departure

Time 2026-04-26 20:43
Airport Punta Gorda Airport (KPGD)

Arrival

Time 2026-04-26 22:05
Airport Pensacola International Airport (KPNS)
Time Latitude Longitude Altitude Speed Heading
2026-04-26 20:19 26.91474 -81.99571 24 ft 0 kts 53°
2026-04-26 20:37 26.91478 -81.99565 24 ft 3 kts 56°
2026-04-26 20:37 26.91473 -81.99509 24 ft 11 kts 142°
2026-04-26 20:37 26.91395 -81.99459 24 ft 14 kts 149°
2026-04-26 20:38 26.91303 -81.99400 24 ft 16 kts 150°
2026-04-26 20:38 26.91205 -81.99333 24 ft 11 kts 137°
2026-04-26 20:38 26.91216 -81.99255 24 ft 13 kts 55°
2026-04-26 20:38 26.91291 -81.99174 24 ft 16 kts 15°
2026-04-26 20:39 26.91406 -81.99114 24 ft 19 kts 27°
2026-04-26 20:39 26.91536 -81.99033 24 ft 22 kts 30°
2026-04-26 20:39 26.91683 -81.98942 24 ft 25 kts 30°
2026-04-26 20:39 26.91849 -81.98837 24 ft 28 kts 30°
2026-04-26 20:40 26.92029 -81.98722 24 ft 31 kts 29°
2026-04-26 20:40 26.92229 -81.98600 24 ft 33 kts 32°
2026-04-26 20:40 26.92381 -81.98502 24 ft 24 kts 26°
2026-04-26 20:40 26.92538 -81.98406 24 ft 27 kts 32°
2026-04-26 20:41 26.92694 -81.98308 24 ft 16 kts 15°
2026-04-26 20:41 26.92781 -81.98245 24 ft 10 kts 81°
2026-04-26 20:41 26.92779 -81.98223 24 ft 0 kts 116°
2026-04-26 20:42 26.92765 -81.98193 24 ft 11 kts 118°
2026-04-26 20:42 26.92692 -81.98169 24 ft 14 kts 211°
2026-04-26 20:43 26.92429 -81.98344 24 ft 91 kts 210°
2026-04-26 20:43 26.91599 -81.98846 93 ft 168 kts 209°
2026-04-26 20:43 26.90485 -81.99416 857 ft 184 kts 201°
2026-04-26 20:43 26.89226 -81.99555 1564 ft 188 kts 178°
2026-04-26 20:44 26.87883 -81.99339 1870 ft 208 kts 173°
2026-04-26 20:44 26.86389 -81.99078 1946 ft 215 kts 173°
2026-04-26 20:44 26.84895 -81.98808 1956 ft 215 kts 173°
2026-04-26 20:44 26.83412 -81.98542 1956 ft 217 kts 173°
2026-04-26 20:45 26.81773 -81.98111 2105 ft 262 kts 154°
2026-04-26 20:45 26.80416 -81.96724 3137 ft 274 kts 120°
2026-04-26 20:45 26.79884 -81.94740 4252 ft 277 kts 90°
2026-04-26 20:45 26.79956 -81.92588 5419 ft 282 kts 83°
2026-04-26 20:46 26.80090 -81.90369 6666 ft 285 kts 83°
2026-04-26 20:46 26.80219 -81.88167 7777 ft 293 kts 83°
2026-04-26 20:46 26.80555 -81.85908 8877 ft 298 kts 66°
2026-04-26 20:46 26.81597 -81.83888 9581 ft 301 kts 44°
2026-04-26 20:47 26.83273 -81.82548 9876 ft 292 kts 17°
2026-04-26 20:47 26.84565 -81.82203 9940 ft 285 kts
2026-04-26 20:47 26.87180 -81.82520 9950 ft 278 kts 347°
2026-04-26 20:47 26.89085 -81.82868 9955 ft 277 kts 348°
2026-04-26 20:48 26.91019 -81.83216 9951 ft 277 kts 348°
2026-04-26 20:48 26.92926 -81.83559 9953 ft 276 kts 348°
2026-04-26 20:48 26.94829 -81.83901 9953 ft 276 kts 348°
2026-04-26 20:48 26.96771 -81.84252 10085 ft 295 kts 348°
2026-04-26 20:49 26.98827 -81.84621 11292 ft 298 kts 348°
2026-04-26 20:49 27.00836 -81.84980 12702 ft 291 kts 348°
2026-04-26 20:49 27.02828 -81.85337 13833 ft 292 kts 348°
2026-04-26 20:49 27.04825 -81.85696 14827 ft 297 kts 348°
2026-04-26 20:50 27.06871 -81.86063 15785 ft 302 kts 348°
2026-04-26 20:50 27.08985 -81.86442 16700 ft 308 kts 348°
2026-04-26 20:50 27.11077 -81.86816 17558 ft 314 kts 348°
2026-04-26 20:50 27.13267 -81.87209 18447 ft 318 kts 348°
2026-04-26 20:51 27.15473 -81.87604 19288 ft 323 kts 347°
2026-04-26 20:51 27.17710 -81.88005 20109 ft 328 kts 347°
2026-04-26 20:51 27.19981 -81.88412 20904 ft 332 kts 348°
2026-04-26 20:51 27.22274 -81.88823 21675 ft 337 kts 347°
2026-04-26 20:52 27.24605 -81.89240 22413 ft 342 kts 347°
2026-04-26 20:52 27.26994 -81.89645 23139 ft 347 kts 348°
2026-04-26 20:52 27.29385 -81.90035 23915 ft 350 kts 348°
2026-04-26 20:52 27.31815 -81.90432 24667 ft 352 kts 348°
2026-04-26 20:53 27.34226 -81.90826 25395 ft 354 kts 348°
2026-04-26 20:53 27.36679 -81.91227 26106 ft 356 kts 348°
2026-04-26 20:53 27.39142 -81.91630 26789 ft 358 kts 347°
2026-04-26 20:53 27.41645 -81.92040 27429 ft 361 kts 347°
2026-04-26 20:54 27.44170 -81.92455 27802 ft 370 kts 347°
2026-04-26 20:54 27.46738 -81.92878 27886 ft 373 kts 347°
2026-04-26 20:54 27.49298 -81.93298 27904 ft 375 kts 347°
2026-04-26 20:54 27.51864 -81.93719 28355 ft 380 kts 348°
2026-04-26 20:55 27.54506 -81.94151 29157 ft 376 kts 348°
2026-04-26 20:55 27.57092 -81.94574 29893 ft 373 kts 348°
2026-04-26 20:55 27.59684 -81.95000 30497 ft 373 kts 348°
2026-04-26 20:55 27.62251 -81.95422 30992 ft 376 kts 348°
2026-04-26 20:56 27.64873 -81.95853 31463 ft 379 kts 348°
2026-04-26 20:56 27.67502 -81.96287 31876 ft 382 kts 348°
2026-04-26 20:56 27.70140 -81.96722 32298 ft 385 kts 348°
2026-04-26 20:56 27.72832 -81.97166 32737 ft 387 kts 348°
2026-04-26 20:57 27.75495 -81.97604 33147 ft 389 kts 347°
2026-04-26 20:57 27.78205 -81.98051 33534 ft 391 kts 348°
2026-04-26 20:57 27.80905 -81.98497 33874 ft 394 kts 348°
2026-04-26 20:58 27.86370 -81.99399 33908 ft 391 kts 347°
2026-04-26 20:58 27.91747 -82.00287 33900 ft 389 kts 348°
2026-04-26 20:59 27.97154 -82.01181 33904 ft 389 kts 348°
2026-04-26 20:59 28.02610 -82.01674 33904 ft 392 kts 353°
2026-04-26 21:00 28.08067 -82.01949 33910 ft 393 kts 353°
2026-04-26 21:00 28.13497 -82.02226 33909 ft 393 kts 353°
2026-04-26 21:00 28.16277 -82.02371 34016 ft 399 kts 353°
2026-04-26 21:01 28.19070 -82.02515 34460 ft 399 kts 353°
2026-04-26 21:01 28.21818 -82.02806 35153 ft 389 kts 346°
2026-04-26 21:01 28.24402 -82.03484 35858 ft 378 kts 339°
2026-04-26 21:01 28.26837 -82.04533 36498 ft 369 kts 332°
2026-04-26 21:02 28.29090 -82.05909 37001 ft 364 kts 325°
2026-04-26 21:02 28.31127 -82.07565 37412 ft 361 kts 319°
2026-04-26 21:02 28.32992 -82.09517 37763 ft 360 kts 314°
2026-04-26 21:02 28.34730 -82.11571 38077 ft 359 kts 313°
2026-04-26 21:03 28.36454 -82.13614 38420 ft 358 kts 314°
2026-04-26 21:03 28.38188 -82.15668 38713 ft 358 kts 313°
2026-04-26 21:03 28.39902 -82.17696 39038 ft 357 kts 313°
2026-04-26 21:03 28.41511 -82.19603 39347 ft 355 kts 313°
2026-04-26 21:04 28.43286 -82.21706 39608 ft 355 kts 313°
2026-04-26 21:04 28.44994 -82.23731 39823 ft 355 kts 313°
2026-04-26 21:04 28.46721 -82.25777 39903 ft 358 kts 314°
2026-04-26 21:05 28.50202 -82.29906 39922 ft 367 kts 314°
2026-04-26 21:05 28.53793 -82.34171 39916 ft 375 kts 313°
2026-04-26 21:06 28.57422 -82.38483 39916 ft 382 kts 313°
2026-04-26 21:06 28.61097 -82.42856 39919 ft 388 kts 313°
2026-04-26 21:07 28.64889 -82.47371 39911 ft 390 kts 313°
2026-04-26 21:07 28.68648 -82.51852 39911 ft 389 kts 314°
2026-04-26 21:08 28.72367 -82.56290 39911 ft 388 kts 314°
2026-04-26 21:08 28.76076 -82.60720 39916 ft 388 kts 314°
2026-04-26 21:09 28.79799 -82.65171 39907 ft 388 kts 313°
2026-04-26 21:09 28.83528 -82.69635 39905 ft 387 kts 313°
2026-04-26 21:10 28.87248 -82.74094 39904 ft 385 kts 313°
2026-04-26 21:10 28.90952 -82.78536 39905 ft 384 kts 313°
2026-04-26 21:11 28.94657 -82.82984 39895 ft 384 kts 313°
2026-04-26 21:11 28.98314 -82.87381 39904 ft 383 kts 313°
2026-04-26 21:12 29.02000 -82.91818 39903 ft 383 kts 313°
2026-04-26 21:12 29.05660 -82.96228 39903 ft 383 kts 313°
2026-04-26 21:13 29.09315 -83.00638 39904 ft 382 kts 313°
2026-04-26 21:13 29.12982 -83.05065 39912 ft 382 kts 313°
2026-04-26 21:14 29.16662 -83.09515 39910 ft 382 kts 313°
2026-04-26 21:14 29.20304 -83.13922 39908 ft 383 kts 313°
2026-04-26 21:15 29.23991 -83.18388 39910 ft 384 kts 313°
2026-04-26 21:15 29.27660 -83.22839 39903 ft 384 kts 313°
2026-04-26 21:16 29.31293 -83.27250 39909 ft 383 kts 313°
2026-04-26 21:16 29.34961 -83.31709 39912 ft 383 kts 313°
2026-04-26 21:17 29.38627 -83.36169 39911 ft 383 kts 312°
2026-04-26 21:17 29.42269 -83.40607 39906 ft 383 kts 312°
2026-04-26 21:18 29.45929 -83.45070 39895 ft 383 kts 312°
2026-04-26 21:18 29.49574 -83.49522 39895 ft 383 kts 312°
2026-04-26 21:19 29.53224 -83.53983 39896 ft 383 kts 312°
2026-04-26 21:19 29.56856 -83.58427 39887 ft 383 kts 312°
2026-04-26 21:20 29.60498 -83.62890 39895 ft 383 kts 312°
2026-04-26 21:20 29.64157 -83.67378 39891 ft 384 kts 311°
2026-04-26 21:21 29.67792 -83.71841 39894 ft 384 kts 311°
2026-04-26 21:21 29.71426 -83.76308 39892 ft 383 kts 311°
2026-04-26 21:22 29.75061 -83.80782 39896 ft 383 kts 311°
2026-04-26 21:22 29.78707 -83.85274 39883 ft 383 kts 311°
2026-04-26 21:23 29.81922 -83.90089 39889 ft 382 kts 299°
2026-04-26 21:23 29.83050 -83.92905 39892 ft 384 kts 291°
2026-04-26 21:23 29.84638 -83.98776 39894 ft 386 kts 289°
2026-04-26 21:24 29.86180 -84.04639 39907 ft 385 kts 289°
2026-04-26 21:24 29.87729 -84.10536 39901 ft 385 kts 289°
2026-04-26 21:25 29.89282 -84.16451 39902 ft 385 kts 289°
2026-04-26 21:25 29.90828 -84.22353 39899 ft 385 kts 289°
2026-04-26 21:26 29.92371 -84.28248 39892 ft 385 kts 289°
2026-04-26 21:26 29.93918 -84.34171 39898 ft 384 kts 289°
2026-04-26 21:27 29.95455 -84.40062 39891 ft 384 kts 289°
2026-04-26 21:27 29.96990 -84.45961 39885 ft 383 kts 289°
2026-04-26 21:28 29.98517 -84.51839 39887 ft 383 kts 289°
2026-04-26 21:28 30.00047 -84.57738 39886 ft 382 kts 289°
2026-04-26 21:29 30.01559 -84.63579 39879 ft 382 kts 289°
2026-04-26 21:29 30.03083 -84.69479 39883 ft 382 kts 289°
2026-04-26 21:30 30.04599 -84.75361 39877 ft 382 kts 289°
2026-04-26 21:30 30.06107 -84.81222 39877 ft 382 kts 288°
2026-04-26 21:31 30.07619 -84.87112 39881 ft 381 kts 288°
2026-04-26 21:31 30.09126 -84.92992 39875 ft 381 kts 289°
2026-04-26 21:32 30.10625 -84.98852 39885 ft 381 kts 289°
2026-04-26 21:32 30.12124 -85.04729 39816 ft 381 kts 289°
2026-04-26 21:33 30.12870 -85.07655 39364 ft 377 kts 288°
2026-04-26 21:33 30.13598 -85.10520 38871 ft 372 kts 289°
2026-04-26 21:33 30.14325 -85.13380 38391 ft 367 kts 289°
2026-04-26 21:33 30.15039 -85.16196 37916 ft 363 kts 289°
2026-04-26 21:34 30.15738 -85.18950 37457 ft 358 kts 288°
2026-04-26 21:34 30.16436 -85.21703 36996 ft 354 kts 288°
2026-04-26 21:34 30.17124 -85.24422 36552 ft 350 kts 289°
2026-04-26 21:34 30.17802 -85.27098 36115 ft 350 kts 289°
2026-04-26 21:35 30.18492 -85.29826 35656 ft 353 kts 288°
2026-04-26 21:35 30.19182 -85.32554 35197 ft 356 kts 288°
2026-04-26 21:35 30.19875 -85.35298 34725 ft 358 kts 288°
2026-04-26 21:35 30.20575 -85.38076 34247 ft 360 kts 288°
2026-04-26 21:36 30.21281 -85.40875 33769 ft 363 kts 288°
2026-04-26 21:36 30.21980 -85.43656 33302 ft 365 kts 288°
2026-04-26 21:36 30.22691 -85.46484 32810 ft 366 kts 288°
2026-04-26 21:36 30.23402 -85.49318 32312 ft 364 kts 288°
2026-04-26 21:37 30.24110 -85.52143 31840 ft 361 kts 288°
2026-04-26 21:37 30.24801 -85.54901 31354 ft 359 kts 288°
2026-04-26 21:37 30.25503 -85.57707 30873 ft 356 kts 288°
2026-04-26 21:37 30.26199 -85.60463 30384 ft 354 kts 289°
2026-04-26 21:38 30.26877 -85.63155 29913 ft 351 kts 289°
2026-04-26 21:38 30.27560 -85.65891 29456 ft 350 kts 288°
2026-04-26 21:38 30.28227 -85.68571 29001 ft 348 kts 288°
2026-04-26 21:38 30.28894 -85.71255 28543 ft 347 kts 288°
2026-04-26 21:39 30.29566 -85.73960 28083 ft 345 kts 288°
2026-04-26 21:39 30.30220 -85.76595 27632 ft 344 kts 288°
2026-04-26 21:39 30.30876 -85.79241 27177 ft 342 kts 288°
2026-04-26 21:39 30.31530 -85.81878 26728 ft 339 kts 288°
2026-04-26 21:40 30.32176 -85.84486 26280 ft 338 kts 288°
2026-04-26 21:40 30.32821 -85.87094 25832 ft 337 kts 288°
2026-04-26 21:40 30.33464 -85.89694 25387 ft 335 kts 287°
2026-04-26 21:40 30.34098 -85.92259 24950 ft 333 kts 288°
2026-04-26 21:41 30.34737 -85.94849 24509 ft 332 kts 287°
2026-04-26 21:41 30.35370 -85.97415 24064 ft 331 kts 288°
2026-04-26 21:41 30.36000 -85.99970 23636 ft 329 kts 287°
2026-04-26 21:41 30.36623 -86.02500 23208 ft 328 kts 287°
2026-04-26 21:42 30.37246 -86.05030 22769 ft 326 kts 287°
2026-04-26 21:42 30.37870 -86.07568 22334 ft 324 kts 288°
2026-04-26 21:42 30.38479 -86.10048 21907 ft 322 kts 288°
2026-04-26 21:42 30.39085 -86.12520 21489 ft 321 kts 288°
2026-04-26 21:43 30.39698 -86.15020 21057 ft 319 kts 288°
2026-04-26 21:43 30.40296 -86.17458 20643 ft 317 kts 287°
2026-04-26 21:43 30.40904 -86.19945 20222 ft 315 kts 288°
2026-04-26 21:43 30.41500 -86.22380 19807 ft 314 kts 288°
2026-04-26 21:44 30.42092 -86.24805 19388 ft 312 kts 288°
2026-04-26 21:44 30.42674 -86.27191 18982 ft 311 kts 288°
2026-04-26 21:44 30.43264 -86.29606 18580 ft 309 kts 288°
2026-04-26 21:44 30.43852 -86.32021 18153 ft 308 kts 288°
2026-04-26 21:45 30.44432 -86.34400 17759 ft 305 kts 288°
2026-04-26 21:45 30.45009 -86.36771 17364 ft 304 kts 288°
2026-04-26 21:45 30.45586 -86.39142 17003 ft 304 kts 288°
2026-04-26 21:45 30.46154 -86.41479 16582 ft 302 kts 288°
2026-04-26 21:46 30.46725 -86.43835 16185 ft 299 kts 288°
2026-04-26 21:46 30.47285 -86.46144 15792 ft 296 kts 288°
2026-04-26 21:46 30.47837 -86.48421 15397 ft 295 kts 288°
2026-04-26 21:46 30.48394 -86.50723 15005 ft 292 kts 288°
2026-04-26 21:47 30.48943 -86.52989 14620 ft 290 kts 288°
2026-04-26 21:47 30.49481 -86.55218 14241 ft 288 kts 288°
2026-04-26 21:47 30.50020 -86.57449 13855 ft 286 kts 288°
2026-04-26 21:47 30.50560 -86.59688 13478 ft 283 kts 288°
2026-04-26 21:48 30.51087 -86.61873 13107 ft 282 kts 287°
2026-04-26 21:48 30.51613 -86.64056 12735 ft 280 kts 288°
2026-04-26 21:48 30.52140 -86.66247 12360 ft 279 kts 287°
2026-04-26 21:48 30.52659 -86.68403 11994 ft 278 kts 287°
2026-04-26 21:49 30.53178 -86.70562 11624 ft 277 kts 287°
2026-04-26 21:49 30.53695 -86.72717 11260 ft 275 kts 287°
2026-04-26 21:49 30.54205 -86.74841 10895 ft 273 kts 287°
2026-04-26 21:49 30.54716 -86.76972 10543 ft 272 kts 287°
2026-04-26 21:50 30.55222 -86.79084 10171 ft 271 kts 287°
2026-04-26 21:50 30.55559 -86.80490 9930 ft 270 kts 287°
2026-04-26 21:50 30.56223 -86.83266 9464 ft 269 kts 287°
2026-04-26 21:50 30.56723 -86.85360 9107 ft 268 kts 287°
2026-04-26 21:51 30.57218 -86.87431 8756 ft 267 kts 287°
2026-04-26 21:51 30.57708 -86.89484 8408 ft 266 kts 287°
2026-04-26 21:51 30.58206 -86.91573 8054 ft 267 kts 287°
2026-04-26 21:51 30.58703 -86.93656 7699 ft 267 kts 287°
2026-04-26 21:52 30.59198 -86.95735 7343 ft 267 kts 287°
2026-04-26 21:52 30.59699 -86.97840 6981 ft 267 kts 287°
2026-04-26 21:52 30.60187 -86.99896 6633 ft 267 kts 287°
2026-04-26 21:52 30.60689 -87.02009 6274 ft 267 kts 287°
2026-04-26 21:53 30.61184 -87.04094 5916 ft 267 kts 286°
2026-04-26 21:53 30.61679 -87.06184 5562 ft 267 kts 287°
2026-04-26 21:53 30.62170 -87.08253 5206 ft 266 kts 287°
2026-04-26 21:53 30.62665 -87.10343 4853 ft 262 kts 286°
2026-04-26 21:54 30.63141 -87.12357 4475 ft 255 kts 286°
2026-04-26 21:54 30.63599 -87.14296 4168 ft 242 kts 286°
2026-04-26 21:54 30.64198 -87.16056 3864 ft 230 kts 307°
2026-04-26 21:54 30.65442 -87.17136 3637 ft 220 kts 337°
2026-04-26 21:55 30.66911 -87.17624 3407 ft 215 kts 357°
2026-04-26 21:55 30.68342 -87.17227 3164 ft 213 kts 24°
2026-04-26 21:55 30.69690 -87.16486 2977 ft 205 kts 15°
2026-04-26 21:55 30.71022 -87.16518 2963 ft 186 kts 333°
2026-04-26 21:56 30.71876 -87.17560 2968 ft 181 kts 288°
2026-04-26 21:56 30.71812 -87.19003 2965 ft 186 kts 243°
2026-04-26 21:56 30.70948 -87.20142 2990 ft 189 kts 227°
2026-04-26 21:56 30.70326 -87.21465 2963 ft 187 kts 269°
2026-04-26 21:57 30.70668 -87.22855 2976 ft 182 kts 305°
2026-04-26 21:57 30.71659 -87.23770 2980 ft 184 kts 340°
2026-04-26 21:57 30.72919 -87.24000 2993 ft 183 kts 352°
2026-04-26 21:57 30.74053 -87.24606 2963 ft 183 kts 313°
2026-04-26 21:58 30.74502 -87.25952 2954 ft 185 kts 270°
2026-04-26 21:58 30.73939 -87.27282 2943 ft 191 kts 220°
2026-04-26 21:58 30.72659 -87.27665 2945 ft 191 kts 169°
2026-04-26 21:58 30.71634 -87.26849 2963 ft 180 kts 121°
2026-04-26 21:59 30.70986 -87.25598 2969 ft 179 kts 131°
2026-04-26 21:59 30.69943 -87.24849 2960 ft 177 kts 163°
2026-04-26 21:59 30.68767 -87.24519 2964 ft 168 kts 169°
2026-04-26 21:59 30.67678 -87.24244 2973 ft 156 kts 168°
2026-04-26 22:00 30.66631 -87.23967 2958 ft 152 kts 168°
2026-04-26 22:00 30.65607 -87.23693 2953 ft 151 kts 168°
2026-04-26 22:00 30.64576 -87.23416 2960 ft 151 kts 168°
2026-04-26 22:00 30.63540 -87.23139 2958 ft 150 kts 168°
2026-04-26 22:01 30.62505 -87.22862 2835 ft 154 kts 168°
2026-04-26 22:01 30.61484 -87.22588 2653 ft 148 kts 168°
2026-04-26 22:01 30.60467 -87.22317 2457 ft 150 kts 168°
2026-04-26 22:01 30.59462 -87.22047 2284 ft 148 kts 168°
2026-04-26 22:02 30.58450 -87.21779 2075 ft 143 kts 169°
2026-04-26 22:02 30.57471 -87.21531 1901 ft 147 kts 170°
2026-04-26 22:02 30.56472 -87.21271 1761 ft 146 kts 169°
2026-04-26 22:02 30.55445 -87.20995 1558 ft 151 kts 169°
2026-04-26 22:03 30.54395 -87.20737 1326 ft 153 kts 168°
2026-04-26 22:03 30.53374 -87.20431 1174 ft 147 kts 167°
2026-04-26 22:03 30.52377 -87.20129 941 ft 144 kts 166°
2026-04-26 22:03 30.51399 -87.19860 707 ft 143 kts 170°
2026-04-26 22:04 30.50425 -87.19619 542 ft 140 kts 167°
2026-04-26 22:04 30.49473 -87.19376 355 ft 140 kts 168°
2026-04-26 22:04 30.48518 -87.19138 207 ft 140 kts 169°
2026-04-26 22:04 30.47620 -87.18909 113 ft 116 kts 168°
2026-04-26 22:05 30.46950 -87.18724 96 ft 59 kts 167°
2026-04-26 22:05 30.46710 -87.18655 98 ft 15 kts 179°
2026-04-26 22:05 30.46678 -87.18745 96 ft 16 kts 276°
2026-04-26 22:05 30.46687 -87.18813 93 ft 8 kts 166°
2026-04-26 22:06 30.46668 -87.18756 96 ft 9 kts 76°
2026-04-26 22:06 30.46679 -87.18636 99 ft 20 kts 102°
2026-04-26 22:06 30.46680 -87.18532 101 ft 11 kts 78°
2026-04-26 22:06 30.46699 -87.18430 101 ft 4 kts 77°
2026-04-26 22:07 30.46700 -87.18426 101 ft 3 kts 77°
2026-04-26 22:07 30.46716 -87.18343 102 ft 14 kts 79°
2026-04-26 22:07 30.46738 -87.18230 104 ft 8 kts 71°
2026-04-26 22:07 30.46770 -87.18214 104 ft 7 kts 336°
2026-04-26 22:08 30.46809 -87.18237 104 ft 5 kts 287°
2026-04-26 22:08 30.46809 -87.18251 104 ft 0 kts 257°